Regional Weather Roundup
Issued by NWS

Home | Current Version | Previous Version | Graphics & Text | Print | Product List | Glossary On
Versions: 1 2 3 4 5 6 7 8 9 10 11 12 13 14 15 16 17 18 19 20 21 22 23 24 25 26 27 28 29 30 31 32 33 34 35 36 37 38 39 40 41 42 43 44 45 46 47 48 49 50
000
ASUS45 KBOU 281107
RWRCO

WEATHER ROUNDUP FOR COLORADO
NATIONAL WEATHER SERVICE DENVER/BOULDER CO
400 AM MST FRI NOV 28 2014

NOTE: "FAIR" INDICATES FEW OR NO CLOUDS BELOW 12000 FEET WITH NO
SIGNIFICANT WEATHER AND/OR OBSTRUCTIONS TO VISIBILITY.

COZ001>005-013-030-031-281200-
...NORTHWEST COLORADO...

CITY           SKY/WX    TMP DP  RH WIND       PRES   REMARKS
CRAIG          CLEAR     24  21  88 CALM      30.18F
HAYDEN         CLEAR     27  19  74 SE14      30.18F WCI  15
MEEKER         CLOUDY    32  23  69 CALM      30.19F
MOUNT WERNER   NOT AVBL
STEAMBOAT SPGS   N/A     21  19  95 CALM      30.20F VSB 1
WALDEN         CLEAR     34  18  51 SE10      30.16F WCI  26
$$

COZ006>008-011-281200-
...WEST CENTRAL VALLEYS...

CITY           SKY/WX    TMP DP  RH WIND       PRES   REMARKS
GRAND JUNCTION MOCLDY    24  21  88 CALM      30.24F
MONTROSE       MOCLDY    29  21  72 S7        30.26F WCI  22
EAGLE          PTCLDY    27  25  93 CALM      30.26F
RIFLE          CLOUDY    29  26  89 CALM      30.26F
DELTA          MOCLDY    27  21  79 CALM      30.25F
NUCLA          MOCLDY    30  21  69 E6        30.30F WCI  24
$$

COZ017>023-064>068-281200-
...SOUTHWEST COLORADO...

CITY           SKY/WX    TMP DP  RH WIND       PRES   REMARKS
DURANGO        PTCLDY    21  17  84 NE6       30.31F WCI  13
CORTEZ         CLEAR     21  16  81 NE3       30.29F
PAGOSA SPRINGS PTCLDY    25  21  85 CALM      30.34F
TELLURIDE      PTCLDY    34  13  42 SE7       30.37F WCI  28
WOLF CREEK PAS CLEAR     28   5  37 MISG      30.42F
$$

COZ009-010-012-014-032>034-037-058>063-281200-
...CENTRAL COLORADO...

CITY           SKY/WX    TMP DP  RH WIND       PRES   REMARKS
ASPEN          PTCLDY    29  19  66 S7        30.25F WCI  22
BUENA VISTA    PTCLDY    44   6  21 N16       30.18F
COPPER MTN     PTCLDY    34   1  25 W31G40    30.34S HAZE    WCI  20
BERTHOUD PASS  NOT AVBL
COTTONWOOD PAS PTCLDY    46  -9   9 W33G55    30.21F
GUNNISON       PTCLDY    12   7  79 NE3       30.37F
KREMMLING      PTCLDY    23  19  86 CALM      30.24F
LEADVILLE      PTCLDY    33   6  32 NE10      30.27F WCI  25
MONARCH PASS   PTCLDY    28   5  37 W31G41    30.47S WCI  12
SALIDA         PTCLDY    46   8  21 SW10      30.24F
SUNLIGHT       MOCLDY    32  21  64 CALM      30.35S
WILKERSON PASS MOCLDY    34   1  25 W16G30    30.27F WCI  23
$$

COZ069>075-281200-
...SAN LUIS VALLEY/SANGRE DE CRISTO MOUNTAINS...

CITY           SKY/WX    TMP DP  RH WIND       PRES   REMARKS
ALAMOSA        MOCLDY     9   5  84 CALM      30.28F
LA VETA PASS   PTCLDY    34  10  37 S16G30    30.30R WCI  23
SAGUACHE       PTCLDY    23  16  74 NW6       30.29F WCI  16
$$

COZ035-036-038>040-281200-
...NORTHERN COLORADO FRONT RANGE...

CITY           SKY/WX    TMP DP  RH WIND       PRES   REMARKS
DENVER INTL AP CLOUDY    46  16  30 W9        29.99F
DMNS CITY PARK   N/A     45  15  30 SW3G9     30.00S
AURORA         PTCLDY    52  12  20 S9        30.02F
FRONT RANGE AP CLOUDY    41  21  45 SE9       30.01S
ERIE MUNI ARPT CLOUDY    44  17  34 CALM      29.97F
BOULDER MUN AP CLOUDY    52  18  25 CALM      29.97F
CENTENNIAL     MOCLDY    43  15  32 S10       30.02F
BROOMFIELD     CLOUDY    52  12  20 CALM      30.00F
FORT COLLINS   MOCLDY    39  18  41 N6        29.98F
LONGMONT       MOCLDY    48  17  28 SE6       29.99F
$$

COZ041-046-047-076>085-087-088-281200-
...PIKES PEAK/PALMER DIVIDE AND SOUTHERN FOOTHILLS...

CITY           SKY/WX    TMP DP  RH WIND       PRES   REMARKS
COLO. SPRINGS  CLOUDY    41  15  35 E10       30.09F
A. F. ACADEMY  CLOUDY    38  13  36 VRB6      30.09F
ELLICOTT       NOT AVBL
FALCON         NOT AVBL
FORT CARSON    MOCLDY    40  16  38 NW3       30.06F
LIMON          PTCLDY    26  18  71 N8        30.03F WCI  18
MONUMENT HILL  MOCLDY    43  12  28 SW10      30.08F
TRINIDAD       PTCLDY    37  21  52 W10       30.12F
$$

COZ042>045-048>051-090-091-281200-
...NORTHEAST COLORADO...

CITY           SKY/WX    TMP DP  RH WIND       PRES   REMARKS
GREELEY ARPT   MOCLDY    25  16  68 CALM      29.98F
AKRON          PTCLDY    43  22  43 SW13      29.96F
BURLINGTON     PTCLDY    34  20  56 SW13      29.98F WCI  25
WRAY           PTCLDY    31  25  77 W6        29.94F WCI  26
STERLING       PTCLDY    32  30  93 S7        29.94F WCI  26
HOLYOKE        PTCLDY    32  28  86 SW7       29.92F WCI  26
FORT MORGAN    PTCLDY    37  24  59 W12       29.97F
$$

COZ086-089-092>099-281200-
...SOUTHEAST COLORADO...

CITY           SKY/WX    TMP DP  RH WIND       PRES   REMARKS
PUEBLO         MOCLDY    34  22  61 SW9       30.05F WCI  27
LA JUNTA       MOCLDY    38  22  52 SW7       30.02F
LAMAR          PTCLDY    28  20  71 W7        30.00F WCI  21
SPRINGFIELD      N/A     38  18  44 W10       30.03F
$$



USA.gov is the U.S. government's official web portal to all federal, state and local government web resources and services.